When you browse on this site, cookies collect data to enhance your experience and personalize the content and advertising you see.
Visit our Privacy Policy to learn more. By continuing to use the site, you agree to this use of cookies and data.
  • In Romania
  • List of Countries
  • For 7 days
  • Water Temperature
  • Weather Map
  • Weather Widgets
  • user-avatar
    Login

    Hourly Weather Berat

    Today, 21 August, Wednesday

    Time Temperature Precipitation Wind Pressure Humidity
    00:00 +25°C° 0 mm 1 mps 746 mmHg 57%
    01:00 +25°C° 0 mm 1 mps 746 mmHg 55%
    02:00 +24°C° 0 mm 1 mps 746 mmHg 56%
    03:00 +24°C° 0 mm 1 mps 746 mmHg 56%
    04:00 +24°C° 0 mm 1 mps 746 mmHg 56%
    05:00 +26°C° 0 mm 1 mps 746 mmHg 50%
    06:00 +27°C° 0 mm 1 mps 746 mmHg 45%
    07:00 +29°C° 0 mm 1 mps 746 mmHg 39%
    08:00 +31°C° 0 mm 1 mps 746 mmHg 36%
    09:00 +34°C° 0 mm 2 mps 746 mmHg 32%
    10:00 +36°C° 0 mm 2 mps 746 mmHg 28%
    11:00 +37°C° 0 mm 3 mps 746 mmHg 27%
    12:00 +37°C° 0 mm 4 mps 746 mmHg 27%
    13:00 +39°C° 0 mm 5 mps 745 mmHg 26%
    14:00 +37°C° 0 mm 5 mps 745 mmHg 29%
    15:00 +36°C° 0 mm 4 mps 745 mmHg 31%
    16:00 +35°C° 0 mm 4 mps 744 mmHg 34%
    17:00 +33°C° 0 mm 3 mps 744 mmHg 43%
    18:00 +29°C° 0 mm 2 mps 744 mmHg 51%
    19:00 +27°C° 0 mm 1 mps 744 mmHg 60%
    20:00 +26°C° 0 mm 1 mps 745 mmHg 60%
    21:00 +26°C° 0 mm 1 mps 745 mmHg 61%
    22:00 +26°C° 0 mm 1 mps 745 mmHg 61%
    23:00 +25°C° 0 mm 1 mps 745 mmHg 59%

    Tomorrow, 22 August, Thursday

    Time Temperature Precipitation Wind Pressure Humidity
    00:00 +25°C° 0 mm 1 mps 745 mmHg 56%
    01:00 +25°C° 0 mm 2 mps 746 mmHg 54%
    02:00 +25°C° 0 mm 2 mps 745 mmHg 53%
    03:00 +24°C° 0 mm 1 mps 745 mmHg 52%
    04:00 +24°C° 0 mm 1 mps 745 mmHg 51%
    05:00 +26°C° 0 mm 1 mps 745 mmHg 45%
    06:00 +28°C° 0 mm 1 mps 746 mmHg 40%
    07:00 +30°C° 0 mm 1 mps 746 mmHg 35%
    08:00 +32°C° 0 mm 1 mps 746 mmHg 30%
    09:00 +34°C° 0 mm 1 mps 746 mmHg 26%
    10:00 +37°C° 0 mm 1 mps 746 mmHg 21%
    11:00 +38°C° 0 mm 2 mps 746 mmHg 20%
    12:00 +39°C° 0 mm 3 mps 746 mmHg 19%
    13:00 +41°C° 0 mm 4 mps 746 mmHg 19%
    14:00 +40°C° 0 mm 4 mps 745 mmHg 22%
    15:00 +37°C° 0 mm 4 mps 745 mmHg 24%
    16:00 +36°C° 0 mm 4 mps 745 mmHg 27%
    17:00 +34°C° 0 mm 3 mps 745 mmHg 34%
    18:00 +30°C° 0 mm 2 mps 745 mmHg 41%
    19:00 +28°C° 0 mm 1 mps 745 mmHg 48%
    20:00 +27°C° 0 mm 1 mps 746 mmHg 48%
    21:00 +27°C° 0 mm 1 mps 746 mmHg 49%
    22:00 +27°C° 0 mm 1 mps 746 mmHg 49%
    23:00 +26°C° 0 mm 2 mps 746 mmHg 48%

    Day after tomorrow, 23 August, Friday

    Time Temperature Precipitation Wind Pressure Humidity
    00:00 +26°C° 0 mm 2 mps 746 mmHg 46%
    01:00 +26°C° 0 mm 2 mps 746 mmHg 45%
    02:00 +26°C° 0 mm 2 mps 746 mmHg 46%
    03:00 +26°C° 0 mm 2 mps 746 mmHg 46%
    04:00 +26°C° 0 mm 2 mps 746 mmHg 47%
    05:00 +27°C° 0 mm 2 mps 746 mmHg 43%
    06:00 +29°C° 0 mm 2 mps 746 mmHg 40%
    07:00 +31°C° 0 mm 1 mps 747 mmHg 36%
    08:00 +34°C° 0 mm 2 mps 747 mmHg 32%
    09:00 +36°C° 0 mm 2 mps 747 mmHg 28%
    10:00 +38°C° 0 mm 2 mps 747 mmHg 23%
    11:00 +37°C° 0 mm 2 mps 746 mmHg 25%
    12:00 +37°C° 0 mm 3 mps 746 mmHg 27%
    13:00 +36°C° 0 mm 3 mps 746 mmHg 28%
    14:00 +35°C° 0 mm 3 mps 745 mmHg 31%
    15:00 +34°C° 0 mm 2 mps 745 mmHg 33%
    16:00 +34°C° 0 mm 2 mps 745 mmHg 35%
    17:00 +31°C° 0 mm 1 mps 745 mmHg 39%
    18:00 +30°C° 0 mm 1 mps 745 mmHg 42%
    19:00 +27°C° 0 mm 0 mps 745 mmHg 46%
    20:00 +29°C° 0 mm 1 mps 745 mmHg 46%
    21:00 +28°C° 0 mm 1 mps 746 mmHg 46%
    22:00 +28°C° 0 mm 1 mps 746 mmHg 46%
    23:00 +27°C° 0 mm 1 mps 746 mmHg 48%

    24 August, Saturday

    Time Temperature Precipitation Wind Pressure Humidity
    00:00 +27°C° 0 mm 1 mps 746 mmHg 49%
    01:00 +27°C° 0 mm 1 mps 745 mmHg 51%
    02:00 +27°C° 0 mm 1 mps 745 mmHg 50%
    03:00 +26°C° 0 mm 1 mps 745 mmHg 50%
    04:00 +26°C° 0 mm 2 mps 745 mmHg 49%
    05:00 +28°C° 0 mm 2 mps 745 mmHg 45%
    06:00 +29°C° 0 mm 2 mps 745 mmHg 41%
    07:00 +31°C° 0 mm 2 mps 746 mmHg 37%
    08:00 +34°C° 0 mm 2 mps 746 mmHg 32%
    09:00 +36°C° 0 mm 2 mps 746 mmHg 28%
    10:00 +38°C° 0 mm 2 mps 746 mmHg 24%
    11:00 +37°C° 0 mm 2 mps 746 mmHg 25%
    12:00 +37°C° 0 mm 3 mps 745 mmHg 26%
    13:00 +36°C° 0 mm 4 mps 745 mmHg 28%
    14:00 +36°C° 0 mm 3 mps 744 mmHg 29%
    15:00 +36°C° 0 mm 3 mps 744 mmHg 29%
    16:00 +36°C° 0 mm 3 mps 744 mmHg 30%
    17:00 +34°C° 0 mm 2 mps 744 mmHg 36%
    18:00 +31°C° 0 mm 2 mps 744 mmHg 41%
    19:00 +29°C° 0 mm 1 mps 744 mmHg 47%
    20:00 +28°C° 0 mm 1 mps 744 mmHg 51%
    21:00 +27°C° 0 mm 1 mps 744 mmHg 55%
    22:00 +26°C° 0 mm 1 mps 745 mmHg 59%
    23:00 +26°C° 0 mm 1 mps 744 mmHg 61%

    25 August, Sunday

    Time Temperature Precipitation Wind Pressure Humidity
    00:00 +25°C° 0 mm 1 mps 744 mmHg 64%
    01:00 +24°C° 0 mm 1 mps 744 mmHg 66%
    02:00 +24°C° 0 mm 2 mps 744 mmHg 61%
    03:00 +24°C° 0 mm 2 mps 744 mmHg 55%
    04:00 +25°C° 0 mm 2 mps 744 mmHg 49%
    05:00 +26°C° 0 mm 2 mps 744 mmHg 44%
    06:00 +28°C° 0 mm 1 mps 744 mmHg 38%
    07:00 +30°C° 0 mm 1 mps 744 mmHg 33%
    08:00 +32°C° 0 mm 1 mps 744 mmHg 30%
    09:00 +35°C° 0 mm 2 mps 744 mmHg 26%
    10:00 +38°C° 0 mm 2 mps 744 mmHg 23%
    11:00 +37°C° 0 mm 3 mps 744 mmHg 25%
    12:00 +37°C° 0 mm 3 mps 744 mmHg 27%
    13:00 +36°C° 0 mm 4 mps 743 mmHg 29%
    14:00 +35°C° 0.1 mm 4 mps 743 mmHg 34%
    15:00 +34°C° 0.1 mm 3 mps 743 mmHg 39%
    16:00 +33°C° 0.1 mm 3 mps 743 mmHg 44%
    17:00 +30°C° 0.1 mm 2 mps 743 mmHg 50%
    18:00 +28°C° 0.1 mm 2 mps 743 mmHg 56%
    19:00 +26°C° 0.1 mm 1 mps 743 mmHg 63%
    20:00 +26°C° 0.2 mm 1 mps 743 mmHg 62%
    21:00 +26°C° 0.2 mm 1 mps 744 mmHg 60%
    22:00 +25°C° 0.2 mm 2 mps 744 mmHg 59%
    23:00 +26°C° 0 mm 2 mps 744 mmHg 58%

    26 August, Monday

    Time Temperature Precipitation Wind Pressure Humidity
    00:00 +26°C° 0 mm 2 mps 744 mmHg 57%
    01:00 +26°C° 0 mm 2 mps 744 mmHg 55%
    02:00 +26°C° 0 mm 2 mps 744 mmHg 56%
    03:00 +25°C° 0 mm 2 mps 744 mmHg 56%
    04:00 +25°C° 0 mm 2 mps 743 mmHg 56%
    05:00 +26°C° 0.1 mm 2 mps 744 mmHg 51%
    06:00 +28°C° 0.1 mm 1 mps 744 mmHg 47%
    07:00 +29°C° 0.1 mm 1 mps 744 mmHg 43%
    08:00 +32°C° 0 mm 1 mps 744 mmHg 36%
    09:00 +34°C° 0 mm 1 mps 745 mmHg 30%
    10:00 +38°C° 0 mm 2 mps 745 mmHg 23%
    11:00 +37°C° 0 mm 2 mps 744 mmHg 25%
    12:00 +36°C° 0 mm 2 mps 744 mmHg 28%
    13:00 +35°C° 0 mm 3 mps 744 mmHg 30%
    14:00 +35°C° 0 mm 3 mps 744 mmHg 32%
    15:00 +34°C° 0 mm 3 mps 744 mmHg 34%
    16:00 +33°C° 0 mm 3 mps 744 mmHg 36%
    17:00 +31°C° 0 mm 2 mps 744 mmHg 40%
    18:00 +30°C° 0 mm 2 mps 744 mmHg 43%
    19:00 +29°C° 0 mm 1 mps 745 mmHg 46%
    20:00 +28°C° 0 mm 2 mps 745 mmHg 48%
    21:00 +27°C° 0 mm 2 mps 745 mmHg 50%
    22:00 +26°C° 0 mm 2 mps 745 mmHg 52%
    23:00 +26°C° 0 mm 2 mps 745 mmHg 53%
    Show more